Wind_Speed
26 28 28 26 26 27 25 24 23 22 22 21 22 22 22 21 20 19 18 18 18 18 18 18 19 19 19 18 16 16 16 15 14 14 14 13 12 11 11 12 12 12
28 29 27 25 24 24 24 24 23 21 21 21 21 21 20 20 19 19 18 18 18 18 18 19 19 20 19 17 16 15 15 15 14 14 13 12 11 10 9 10 10 10
29 29 28 25 23 23 23 22 21 20 20 20 20 19 19 19 18 18 18 18 18 19 19 19 19 19 18 16 15 15 15 14 14 13 12 10 9 9 9 10 10 10
28 28 28 25 22 22 22 21 19 20 20 20 19 18 18 18 18 18 18 18 19 19 19 19 19 18 16 16 15 15 15 14 14 13 11 9 8 9 10 10 11 11
27 28 27 25 22 21 21 20 20 21 21 19 18 18 18 18 18 18 18 18 19 19 20 20 19 16 15 16 16 16 16 16 15 13 11 9 8 8 9 10 10 10
29 29 27 25 22 20 21 21 20 21 20 18 18 18 17 17 18 18 18 19 19 20 21 20 18 16 15 16 17 17 17 17 15 14 12 10 9 8 8 8 8 7
29 29 27 26 24 22 21 21 20 20 18 17 17 17 17 18 18 18 18 19 20 20 20 19 18 16 16 17 17 18 18 17 16 14 13 12 10 9 8 8 8 7
27 28 28 28 27 25 21 19 19 18 17 18 18 17 18 19 18 18 19 19 19 19 19 18 17 16 17 17 18 19 19 18 16 15 14 13 12 11 10 9 9 7
26 27 28 29 29 25 20 19 19 19 19 19 18 18 19 19 19 18 18 18 17 17 18 17 17 17 18 18 19 20 19 18 17 15 15 14 14 13 12 12 11 10
26 27 28 30 29 24 21 20 20 20 21 20 19 19 20 20 20 19 18 17 17 17 18 18 18 18 19 20 20 21 20 20 18 17 16 16 15 15 15 15 14 13
27 28 29 31 30 25 22 22 20 21 22 21 20 20 21 21 20 19 17 16 17 18 19 19 20 20 20 20 21 21 21 21 20 19 18 18 17 17 18 18 17 17
28 27 28 32 30 25 23 23 23 24 24 22 20 21 22 22 21 19 17 16 16 17 18 19 19 20 20 21 21 21 21 21 20 20 19 19 19 19 20 20 20 19
27 26 27 31 29 25 24 25 24 25 24 21 21 22 24 23 22 21 18 16 15 16 17 18 18 19 19 20 20 21 21 21 21 21 21 21 21 21 21 22 22 21
24 24 26 29 27 25 25 24 24 24 23 22 22 23 25 25 24 22 19 18 16 16 17 18 18 18 19 19 20 21 22 23 23 23 23 23 23 23 23 23 23 23
22 23 25 26 26 25 23 22 22 23 23 23 23 23 24 25 24 22 21 20 19 18 19 19 19 19 20 20 21 22 23 24 25 25 25 25 25 25 25 25 25 25
21 23 25 25 25 24 23 21 22 24 24 23 23 23 24 25 25 24 23 22 22 21 21 21 21 21 22 22 22 23 23 23 24 25 25 25 26 26 26 26 26 26
22 23 25 25 25 24 22 22 22 24 24 24 23 24 24 25 25 25 24 23 24 24 24 24 23 24 24 25 25 24 23 23 23 23 24 25 26 26 26 26 26 26
23 24 25 25 24 23 22 22 23 24 25 24 23 22 22 23 24 24 23 23 24 25 24 23 23 24 25 27 27 26 24 23 22 22 24 25 26 27 26 26 26 26
22 23 24 25 25 23 22 22 24 25 26 25 23 22 22 23 23 23 23 24 24 25 25 25 25 25 25 26 27 27 24 22 22 22 23 24 26 27 27 27 26 26
23 22 24 26 26 24 22 23 25 26 26 26 25 24 23 23 23 24 25 26 26 26 27 28 27 25 23 23 25 26 25 23 22 22 22 23 24 26 26 27 27 27
26 26 27 27 26 25 24 25 27 26 26 27 28 27 26 26 27 27 27 27 26 25 25 25 25 24 22 21 22 24 25 24 24 23 22 22 22 23 24 26 27 27
29 29 28 26 25 26 26 27 26 26 27 29 29 27 27 27 27 26 25 25 25 24 23 23 23 23 22 21 21 23 24 25 26 25 24 23 23 23 24 25 27 28
29 29 29 27 26 27 28 28 27 26 27 28 27 26 26 26 25 24 23 24 24 24 24 24 24 23 22 21 22 23 25 27 28 28 27 26 26 26 27 28 30 31
28 29 30 31 31 32 32 32 30 29 28 27 26 26 25 24 24 23 23 23 24 25 25 25 25 24 23 23 23 24 26 28 29 30 30 30 30 30 31 31 32 33
31 32 33 33 33 33 32 31 30 29 27 25 25 25 25 24 25 25 24 25 26 26 26 26 26 25 25 25 25 25 26 28 30 31 31 32 33 33 33 34 35 35
33 33 33 32 31 29 29 29 28 28 27 26 26 26 27 27 27 27 27 28 28 28 28 28 28 28 27 27 27 27 29 30 32 32 33 34 35 35 36 38 38 38
Wind_Direction
223 224 237 246 253 257 255 252 251 250 250 251 251 249 247 245 245 245 248 250 252 252 251 252 255 258 260 261 263 264 265 267 270 273 274 274 271 267 259 255 258 263
231 236 244 248 253 256 253 251 251 251 252 252 251 251 249 247 245 244 246 248 251 251 251 253 256 258 258 258 260 262 264 267 269 270 272 272 270 266 258 253 254 257
235 239 243 247 255 257 252 249 249 251 252 251 252 251 247 245 242 241 244 247 249 251 251 253 255 255 254 255 258 260 262 264 264 266 269 270 267 259 252 249 248 249
235 238 241 247 255 259 256 252 247 246 248 250 252 248 243 241 239 240 243 245 247 248 250 252 251 249 249 252 256 258 259 260 258 258 262 264 261 253 245 243 244 247
238 239 243 247 253 258 258 254 248 244 245 248 249 245 241 239 238 239 241 242 243 244 246 247 245 244 246 250 253 256 257 258 255 252 252 255 257 255 248 244 242 243
241 243 244 242 245 254 254 250 245 242 243 247 247 244 240 237 236 236 237 238 239 240 241 241 240 240 244 248 251 253 255 256 253 250 249 248 251 254 254 250 243 239
244 246 242 236 239 249 251 246 241 238 242 247 246 243 239 236 233 231 232 234 236 238 236 234 234 237 242 246 249 250 251 252 250 247 245 244 246 252 255 256 252 248
245 245 240 234 238 247 247 241 237 238 244 245 242 239 236 234 229 226 228 230 232 233 232 231 233 237 242 245 246 247 248 248 247 244 242 242 244 248 252 257 258 258
244 245 241 235 237 243 240 233 234 240 245 243 237 234 234 232 226 222 223 225 227 230 230 232 235 237 242 244 245 246 246 246 246 244 243 242 243 247 250 252 256 258
242 246 244 235 233 235 230 228 234 240 243 242 236 233 232 230 227 223 223 224 227 231 234 236 238 240 242 244 245 246 246 246 246 245 245 244 244 246 248 249 251 253
241 243 244 234 228 228 226 227 234 238 239 239 236 234 231 230 231 229 226 226 229 233 237 238 239 241 243 244 246 246 246 246 247 247 247 247 246 247 249 249 249 251
242 241 241 232 224 224 223 224 230 234 235 234 234 233 228 228 234 235 229 228 232 235 237 238 239 240 242 243 244 245 245 246 247 248 249 250 250 250 251 252 252 253
247 244 238 227 221 221 220 221 227 230 231 231 232 229 225 227 234 234 231 231 233 234 234 236 237 238 240 242 243 246 247 247 248 249 249 250 251 251 252 254 255 255
248 242 229 218 217 219 220 223 228 228 227 228 228 226 225 228 232 234 236 237 234 230 230 231 234 238 241 244 247 251 253 253 253 253 253 253 253 254 254 256 258 258
241 233 218 214 221 224 223 228 229 227 225 226 227 227 228 231 234 237 242 243 239 234 232 233 237 243 247 250 253 255 257 257 257 256 257 257 258 259 259 260 262 262
229 221 217 223 229 226 224 227 227 225 225 226 228 230 232 235 238 241 244 247 246 243 239 240 244 248 250 253 257 259 258 259 258 256 256 258 259 260 261 261 262 262
222 218 221 226 227 226 227 229 227 225 225 225 227 231 235 239 242 244 246 248 249 248 247 247 249 251 253 255 257 259 259 259 259 257 256 256 257 258 259 259 259 260
222 223 227 228 228 231 235 235 233 230 227 227 228 233 239 244 245 245 247 248 249 250 249 249 251 255 256 256 256 257 258 259 260 260 258 257 257 256 256 256 256 259
226 227 229 231 232 235 237 237 237 236 233 232 234 239 244 246 246 247 247 248 249 249 248 250 255 258 260 257 253 252 255 258 259 261 262 261 260 259 257 257 257 260
228 227 226 230 235 236 234 234 238 239 238 237 238 242 245 246 247 248 248 249 251 251 252 254 256 257 259 258 253 250 253 256 258 261 263 263 264 264 264 264 265 266
222 222 225 230 236 239 238 239 241 241 240 240 241 243 246 248 250 251 249 250 253 255 255 254 252 252 255 257 253 252 253 255 257 261 263 263 265 266 267 269 269 270
220 222 227 231 234 236 240 243 243 239 238 240 241 242 244 248 250 250 248 248 251 252 250 248 247 249 251 252 253 253 254 254 257 261 264 267 269 271 271 271 271 271
226 228 231 234 234 233 235 238 239 239 242 244 245 246 249 251 250 248 247 248 249 249 247 246 246 247 249 252 254 255 255 256 259 262 265 269 272 273 273 273 272 272
230 231 233 236 237 237 237 238 241 246 251 252 251 252 253 251 249 249 249 250 250 250 249 248 248 250 253 256 258 258 258 258 260 262 265 268 271 273 274 273 273 274
232 235 237 238 239 241 242 242 244 248 250 249 248 249 249 246 248 250 251 251 251 250 250 250 251 253 257 261 262 262 262 263 263 265 267 269 272 274 274 275 275 275
235 237 238 238 239 241 242 242 243 245 246 245 246 248 249 250 251 252 253 254 253 253 254 255 257 260 262 264 265 265 265 266 266 267 269 271 273 275 276 277 277 278
Height
5767 5768 5769 5770 5772 5773 5774 5775 5776 5777 5778 5779 5780 5781 5783 5784 5785 5786 5787 5788 5789 5789 5790 5790 5791 5792 5793 5793 5794 5795 5796 5796 5797 5798 5798 5798 5798 5798 5798 5798 5797 5798
5765 5766 5767 5768 5769 5770 5771 5772 5773 5775 5776 5777 5778 5779 5780 5782 5783 5785 5786 5786 5787 5787 5788 5788 5789 5790 5791 5792 5792 5793 5794 5795 5796 5796 5796 5797 5797 5797 5796 5796 5796 5796
5763 5764 5765 5766 5768 5768 5769 5770 5771 5773 5773 5774 5775 5776 5778 5779 5781 5782 5784 5784 5785 5785 5786 5786 5787 5788 5789 5789 5790 5791 5793 5794 5794 5795 5795 5795 5795 5795 5795 5794 5795 5795
5759 5761 5763 5765 5766 5767 5767 5768 5769 5770 5771 5772 5773 5774 5775 5777 5778 5780 5781 5782 5782 5783 5784 5784 5785 5786 5787 5787 5788 5789 5790 5792 5793 5793 5793 5793 5793 5794 5794 5793 5793 5794
5757 5759 5761 5763 5764 5765 5765 5766 5767 5768 5769 5769 5771 5772 5773 5775 5776 5777 5778 5779 5780 5781 5781 5782 5783 5784 5785 5786 5787 5788 5788 5789 5790 5791 5792 5792 5792 5792 5792 5792 5792 5793
5755 5757 5759 5761 5762 5762 5762 5763 5764 5766 5767 5768 5769 5770 5771 5773 5774 5774 5775 5776 5777 5778 5779 5780 5781 5782 5783 5784 5785 5786 5787 5787 5788 5789 5790 5790 5791 5791 5791 5791 5792 5792
5753 5755 5756 5758 5759 5759 5760 5761 5762 5763 5765 5766 5767 5768 5769 5770 5771 5772 5773 5774 5775 5776 5777 5777 5778 5780 5781 5782 5783 5784 5785 5785 5786 5787 5788 5789 5789 5789 5790 5790 5790 5791
5751 5752 5753 5755 5756 5757 5758 5759 5760 5761 5762 5763 5764 5766 5767 5768 5769 5770 5771 5772 5773 5774 5774 5775 5776 5778 5779 5780 5781 5782 5783 5783 5784 5785 5786 5786 5787 5787 5788 5788 5789 5789
5748 5749 5750 5752 5753 5755 5757 5757 5758 5759 5760 5761 5762 5763 5764 5765 5767 5768 5769 5770 5771 5772 5773 5774 5775 5776 5777 5778 5779 5780 5781 5781 5782 5783 5783 5784 5784 5785 5786 5786 5787 5787
5745 5745 5747 5749 5751 5753 5754 5754 5755 5757 5758 5759 5760 5762 5763 5764 5765 5766 5767 5768 5769 5770 5771 5772 5773 5774 5775 5776 5777 5778 5779 5779 5780 5780 5781 5781 5782 5783 5783 5784 5785 5785
5742 5742 5744 5745 5748 5750 5751 5752 5753 5755 5756 5757 5758 5760 5761 5762 5763 5764 5765 5766 5767 5767 5768 5769 5770 5771 5772 5773 5774 5775 5776 5777 5778 5778 5779 5779 5780 5780 5781 5781 5782 5783
5739 5740 5741 5742 5745 5747 5748 5750 5751 5752 5753 5755 5756 5758 5759 5760 5761 5762 5763 5764 5764 5765 5766 5767 5768 5769 5770 5771 5772 5773 5774 5774 5775 5776 5776 5777 5778 5778 5778 5779 5780 5781
5736 5737 5738 5739 5742 5744 5745 5747 5748 5749 5751 5752 5753 5755 5756 5758 5759 5760 5761 5761 5762 5763 5764 5765 5766 5767 5768 5769 5769 5770 5771 5772 5773 5773 5774 5774 5775 5776 5776 5776 5777 5778
5734 5734 5734 5737 5740 5741 5743 5745 5746 5747 5748 5750 5751 5752 5754 5755 5756 5757 5758 5759 5760 5761 5762 5763 5764 5765 5766 5767 5767 5768 5768 5769 5770 5770 5771 5772 5772 5773 5773 5773 5774 5775
5731 5731 5733 5735 5737 5739 5741 5743 5744 5745 5746 5747 5749 5750 5752 5753 5754 5755 5755 5757 5758 5759 5760 5761 5762 5763 5764 5765 5765 5766 5766 5766 5767 5767 5768 5769 5769 5770 5770 5770 5771 5772
5729 5730 5732 5733 5735 5737 5739 5740 5742 5743 5744 5745 5747 5748 5749 5750 5751 5752 5753 5754 5755 5757 5758 5759 5759 5760 5761 5762 5762 5763 5763 5764 5764 5764 5765 5766 5766 5767 5767 5768 5768 5769
5728 5729 5731 5732 5734 5736 5737 5738 5739 5740 5741 5743 5744 5746 5747 5748 5748 5749 5750 5751 5752 5753 5754 5756 5757 5757 5758 5759 5759 5760 5760 5760 5761 5761 5762 5762 5763 5763 5764 5765 5765 5766
5726 5728 5729 5731 5733 5734 5735 5736 5737 5738 5739 5741 5742 5743 5744 5745 5746 5747 5748 5748 5749 5750 5751 5753 5753 5754 5755 5755 5756 5756 5757 5757 5758 5758 5758 5759 5759 5760 5761 5761 5762 5763
5724 5726 5728 5729 5730 5732 5732 5733 5734 5736 5737 5738 5740 5741 5741 5742 5743 5744 5745 5746 5746 5747 5748 5749 5750 5751 5751 5751 5752 5753 5754 5754 5755 5755 5755 5756 5756 5756 5757 5758 5758 5759
5722 5724 5725 5726 5728 5729 5730 5731 5732 5734 5735 5736 5737 5737 5738 5739 5740 5741 5742 5743 5744 5744 5745 5746 5746 5747 5747 5748 5748 5749 5750 5751 5752 5752 5752 5753 5753 5753 5754 5754 5755 5755
5720 5721 5722 5724 5726 5727 5727 5729 5730 5731 5732 5733 5733 5735 5736 5736 5737 5738 5739 5740 5740 5741 5741 5742 5743 5743 5744 5745 5745 5746 5747 5748 5748 5749 5749 5749 5750 5750 5750 5751 5751 5751
5717 5719 5720 5722 5724 5724 5725 5726 5727 5728 5729 5730 5730 5732 5732 5733 5733 5734 5735 5736 5736 5737 5738 5738 5739 5740 5741 5742 5743 5743 5744 5744 5745 5745 5746 5746 5746 5747 5747 5747 5747 5748
5715 5717 5718 5719 5721 5722 5722 5723 5723 5725 5726 5726 5727 5728 5728 5729 5730 5731 5731 5732 5733 5734 5734 5735 5736 5737 5738 5739 5739 5740 5741 5741 5741 5742 5742 5742 5743 5743 5743 5743 5744 5744
5712 5713 5715 5716 5717 5718 5718 5719 5720 5721 5722 5723 5723 5724 5725 5726 5727 5728 5729 5729 5730 5731 5732 5732 5733 5734 5735 5736 5736 5737 5737 5738 5738 5738 5739 5739 5739 5739 5739 5739 5740 5739
5708 5709 5711 5712 5713 5714 5715 5716 5717 5718 5719 5719 5720 5720 5722 5723 5724 5724 5725 5726 5727 5728 5729 5729 5730 5731 5731 5732 5733 5733 5733 5734 5734 5734 5734 5735 5735 5735 5735 5734 5735 5735
5705 5706 5707 5708 5709 5710 5711 5712 5713 5715 5715 5716 5717 5717 5718 5719 5720 5721 5722 5723 5724 5725 5725 5726 5726 5727 5728 5728 5729 5729 5729 5730 5730 5730 5730 5730 5730 5730 5730 5729 5730 5731